Kezdőlap
METAR-TAF:

METAR-TAF

Repülőterek :

Albert Lea, Minnesota, Amerikai Egyesült Államok

földrajzi szélesség: 43-41N, földrajzi hosszúság: 093-22W, magasság: 383 m

Jelenlegi meteorológiai megfigyelések

A jelentés 23 perccel ezelõtt készült, 14:15 UTC
Északnyugati szél 3 kt
Hőmérséklet -1°C
Páratartalom 69%
Légköri nyomás 1027 hPa
Látótávolság: 16.1 km
Borult 8500 lábon

METAR: KAEL 041415Z AUTO 31003KT 10SM OVC085 M01/M06 A3033 RMK AO2

Idő: 08:38 (14:38 UTC)


TAF: hiányzik

Meteorológiai megfigyelések és előrejelzések több, mint 4000 repülőtéren (METAR és TAF jelentéseket).

A térképen piros és sárga pontok jelzik az elérhető meteorológiai állomásokat.

Mozgassa az egeret a pont fölött, hogy megjelenjen az állomás neve.

Azután kattintson az időjárási megfigyelések és előrejelzések megtekintéséhez.

A térkép megváltoztatása: kattintson a fekete keresztel jelölt zöld gombra ráközelítéshez, a vonallal jelölt zöld gombra távolításhoz, vagy a zöld nyilakra a szomszédos térképek eléréséhez.


METAR-TAF: